Flag for Germany Weather past 2 weeks in Gifhorn, Lower Saxony, Germany

Now
57 °F

Passing clouds.


Feels Like: 57 °F
Forecast: 55 / 74 °F
Wind: 5 mph from Southwest

Location: Braunschweig

Current Time: Aug 28, 2015 at 7:44:46 AM

Latest Report: Aug 28, 2015 at 7:20 AM


Visibility: N/A

Pressure: 29.95 "Hg

Humidity: 100%

Dew point: 57 °F

Location of GifhornLocation

Historic Weather in Gifhorn — Graph

°F

Gifhorn temperature yesterday

Maximum temperature yesterday: 73 °F (at 9:20 AM)
Minimum temperature yesterday: 61 °F (at 8:20 PM)
Average temperature yesterday: 68 °F

Past Weeks' High & Low Weather Summary

 TemperatureHumidityPressure
High90 °F (Aug 14, 3:20 PM)100% (Aug 14, 7:50 PM)30.30 "Hg (Aug 14, 7:50 PM)
Low50 °F (Aug 21, 6:50 AM)30% (Aug 21, 2:50 PM)29.65 "Hg (Aug 24, 5:20 PM)
Average69 °F73%29.96 "Hg
* Reported Aug 12 9:20 PM — Aug 27 9:50 PM, Gifhorn, Weather by CustomWeather, © 2015

Note: Actual official high and low records may vary slightly from our data, if they occured in-between our weather recording intervals... More about our weather records

Advertising

Gifhorn weather history for previous 24 hours

 ConditionsComfort  
Time TempWeatherWind HumidityBarometerVisibility
9:50 PM
Thu, Aug 27
61 °FRain showers. Mostly cloudy.No wind100%29.86 "Hg5 mi
9:20 PM61 °FRain. Mostly cloudy.3 mph100%29.86 "Hg5 mi
8:50 PM61 °FLight rain. Cloudy.2 mph100%29.86 "HgN/A
8:20 PM61 °FMostly cloudy.3 mph100%29.86 "HgN/A
7:50 PM63 °FLight rain. Mostly cloudy.3 mph100%29.83 "HgN/A
7:20 PM63 °FMore clouds than sun.5 mph100%29.83 "HgN/A
6:50 PM63 °FLight rain. Broken clouds.No wind100%29.83 "HgN/A
6:20 PM64 °FLight rain. Mostly cloudy.6 mph88%29.83 "Hg6 mi
5:50 PM66 °FLight rain. Mostly cloudy.7 mph78%29.83 "HgN/A
5:20 PM68 °FLight rain. Mostly cloudy.8 mph69%29.83 "HgN/A
4:50 PM68 °FLight rain. Broken clouds.9 mph73%29.86 "HgN/A
4:20 PM68 °FPartly sunny.9 mph73%29.86 "HgN/A
3:50 PM68 °FDrizzle. Partly sunny.12 mph69%29.86 "HgN/A
3:20 PM66 °FLight rain. Clear.9 mph78%29.86 "HgN/A
2:50 PM68 °FSunny.12 mph69%29.86 "Hg10 mi
2:20 PM68 °FPartly sunny.15 mph69%29.86 "HgN/A
1:50 PM68 °FPassing clouds.13 mph69%29.86 "HgN/A
1:20 PM70 °FSunny.12 mph64%29.89 "Hg10 mi
12:20 PM70 °FSunny.10 mph69%29.86 "Hg10 mi
11:50 AM70 °FSunny.10 mph64%29.86 "Hg10 mi
11:20 AM70 °FSunny.9 mph60%29.86 "Hg10 mi
10:50 AM72 °FSunny.10 mph57%29.86 "Hg10 mi
10:20 AM72 °FSunny.9 mph57%29.83 "Hg10 mi
9:50 AM73 °FSunny.12 mph53%29.83 "Hg10 mi
9:20 AM73 °FSunny.13 mph53%29.83 "Hg10 mi
8:50 AM72 °FSunny.13 mph53%29.80 "Hg10 mi
8:20 AM72 °FSunny.12 mph53%29.80 "Hg10 mi
7:50 AM72 °FSunny.13 mph50%29.80 "Hg10 mi
7:20 AM72 °FSunny.16 mph50%29.80 "Hg10 mi
Weather by CustomWeather, © 2015

See weather overviewHow to use our weather pages